MOLNIYA 1-52

Last updated on Wed Jun 28 2023 01:02:59 GMT+0100 (British Summer Time)

1 13012U 81123A 23177.61902725 -.00000811 00000+0 -61266-2 0 9998 2 13012 61.5968 225.6645 7160625 259.8853 19.6477 2.00806227304155
UTC large
Height (km)
Speed (km/s)
/
Latitude / Longitude
Inclination (degrees)
Orbital Period (minutes)
Azimuth
Elevation
Range (km)
Doppler Factor

Next 0 passes for location: London (51.5072 / 0.1276)

Sorry there are no passes over London.